sat.trackr.live / text

‹ back to catalog

STARLINK-4110

NORAD 53166 · 2022-083AL

PAYLOAD ACTIVE UNKNOWN

§ Identity

Operator
Country
US
Launch date
2022-07-17
Launch site
AFETR
Launch vehicle
Mass (kg)
RCS (m²)

Purposes: comms

External: N2YO · Heavens-Above · Gunter

§ Orbital elements

Epoch: 2026-05-25T06:00:02.000160Z

Period
93.34 min
Inclination
53.2179°
Eccentricity
0.0000892
Mean motion
15.42666073 rev/d
Perigee alt
437.6 km
Apogee alt
438.9 km
Semi-major
6,816.4 km
B*
2.5626e-3
RAAN
173.4013°
Arg perigee
81.8686°
Mean anomaly
206.4353°
Rev number
585

§ Raw data

STARLINK-41101 53166U 22083AL  26145.25002315  .00114709  00000+0  25626-2 0  99962 53166  53.2179 173.4013 0000892  81.8686 206.4353 15.42666073  5856

JSON: /api/v1/satellites/53166 · /tle

For live sub-satellite position, see the globe view (requires WebGL).

§ Visibility from observer

Set your observer location to see the next 7 days of passes ≥ 10°. The values pass through the URL so the page stays shareable.

No JS? Fill the form by hand. The geolocation button needs JavaScript.